Location: Unspecified
(0.0000°N, 0.0000°E)
Time: 07:46:12
(UTC+00:00)

Amateur Radio Satellites - All Passes

Search period start: 05 September 2015 07:16
Search period end: 06 September 2015 07:16
Location: Unspecified, 0.0000°N, 0.0000°E

Satellite Date Start Highest point End Downlink Frequencies (MHz)
Time Altitude Azimuth
HO-68 05 Sep 07:28:51 07:35:01 33° 103° (ESE) 07:41:22 435.675
JUGNU 05 Sep 07:32:44 07:38:22 41° 340° (NNW) 07:43:59 437.505
AIST 1 05 Sep 07:38:36 07:40:12 11° 276° (W) 07:41:28
DOVE 4 05 Sep 07:46:49 07:51:51 59° 101° (E) 07:56:38 437.250
BRITE-PL 05 Sep 07:50:58 07:56:09 36° 281° (WNW) 08:01:07 437.365/2234.400
GOMX 1 05 Sep 07:55:56 08:01:13 57° 282° (WNW) 08:06:16 467.674
CINEMA 3 05 Sep 07:58:55 08:02:46 27° 100° (E) 08:06:35 145.822/145.860
CUTE 1.7 + AOD 2 05 Sep 08:16:15 08:20:26 87° 282° (WNW) 08:24:39 437.475
YUBILEINY 05 Sep 08:29:14 08:37:36 48° 266° (W) 08:45:51 435.215
CANX-2 05 Sep 08:31:12 08:35:12 43° 281° (W) 08:39:12 2200.000
ZACube-1 05 Sep 08:35:25 08:37:12 13° 99° (E) 08:39:15 437.345
FUNcube-1 05 Sep 08:38:22 08:40:22 14° 99° (E) 08:42:38 145.935
SEEDS 05 Sep 08:44:08 08:48:06 43° 281° (W) 08:52:04 437.485
SRMSAT 05 Sep 08:51:05 08:56:57 55° 339° (NNW) 09:02:47 437.500
UWE-3 05 Sep 08:51:06 08:54:58 33° 100° (E) 08:58:49 435.000/436.395/437.385
Cosmos 2491 05 Sep 08:52:23 08:59:44 29° 275° (W) 09:06:42 435.465 / 435.565
CUBEBUG 2 05 Sep 08:53:50 08:58:07 53° 101° (E) 09:02:18 437.445
DELFI C3 05 Sep 08:54:55 08:58:10 25° 101° (E) 09:01:29 145.870
COMPASS 1 05 Sep 08:58:11 09:02:01 37° 281° (W) 09:05:51 437.405
Cosmos 2504 05 Sep 09:00:47 09:06:24 23° 83° (E) 09:12:07 435.465 / 435.565
AAUSAT CUBESAT 2 05 Sep 09:04:08 09:07:58 38° 280° (W) 09:11:48 437.432
UNISAT 6 05 Sep 09:09:00 09:09:49 11° 80° (E) 09:11:02 437.425
Oscar 11 05 Sep 09:15:22 09:19:39 83° 280° (W) 09:23:57 145.826/435.025
HO-68 05 Sep 09:16:39 09:22:37 27° 283° (WNW) 09:28:21 435.675
CUSAT 1 05 Sep 09:21:46 09:27:30 23° 80° (E) 09:33:02 437.405
JUGNU 05 Sep 09:23:51 09:27:51 18° 346° (NNW) 09:31:45 437.505
TIGRISAT 05 Sep 09:32:52 09:36:27 23° 79° (E) 09:40:12 435.000
VERMONT LUNAR 05 Sep 09:33:21 09:36:09 41° 223° (SW) 09:38:59 437.305
CINEMA 3 05 Sep 09:37:13 09:39:49 14° 281° (W) 09:42:05 145.822/145.860
ANTELSAT 05 Sep 09:51:15 09:55:38 44° 79° (ENE) 10:00:05 437.575/2403.000
QB50P1 05 Sep 09:54:35 09:55:19 11° 80° (E) 09:56:25 145.935-145.965
AISAT 05 Sep 09:58:28 10:01:16 17° 100° (E) 10:04:18 437.250
ESTCUBE 1 05 Sep 10:03:41 10:05:42 13° 100° (E) 10:08:03 437.505/2401.250
AUBIESAT-1 05 Sep 10:05:22 10:09:44 41° 75° (ENE) 10:14:13 437.475
SO-50 05 Sep 10:08:26 10:13:04 57° 248° (WSW) 10:17:33 436.795
ZACube-1 05 Sep 10:09:58 10:13:28 24° 281° (W) 10:16:49 437.345
FUNcube-1 05 Sep 10:13:13 10:16:36 22° 281° (W) 10:19:49 145.935
HUMSAT D 05 Sep 10:14:20 10:18:25 70° 281° (WNW) 10:22:30 437.325/437.525
M-CUBED/EXP-1 PRIME 05 Sep 10:15:08 10:19:48 70° 74° (ENE) 10:24:34 437.505
DANDE 05 Sep 10:22:17 10:30:34 58° 84° (E) 10:38:02 436.750
VELOX 1 05 Sep 10:23:58 10:28:04 37° 101° (E) 10:32:14 145.980
DELFI C3 05 Sep 10:32:14 10:33:06 10° 279° (W) 10:33:40 145.870
50 SAT 05 Sep 10:33:30 10:37:17 69° 101° (E) 10:41:03 437.505
BUGSAT 1 05 Sep 10:38:55 10:42:09 24° 79° (E) 10:45:29 437.445
SRMSAT 05 Sep 10:41:51 10:46:26 22° 344° (NNW) 10:50:55 437.500
UNISAT 6 05 Sep 10:42:13 10:46:28 36° 259° (W) 10:50:43 437.425
Cosmos 2504 05 Sep 10:51:30 10:58:33 36° 267° (W) 11:05:02 435.465 / 435.565
DX 1 05 Sep 10:51:39 10:55:50 45° 282° (WNW) 11:00:02 434.975-435.025
DUCHIFAT 1 05 Sep 10:51:44 10:55:57 78° 79° (E) 11:00:10 145.980
POLYITAN 1 05 Sep 10:55:04 10:59:20 85° 262° (W) 11:03:35 437.675
POPSAT HIP 1 05 Sep 10:55:43 10:59:57 86° 258° (WSW) 11:04:11 437.405
UKube-1 05 Sep 10:56:34 11:00:42 44° 282° (WNW) 11:04:50 .
PCSat 05 Sep 10:56:57 11:02:22 88° 78° (ENE) 11:07:47 145.827
SPROUT 05 Sep 10:57:50 10:59:21 12° 100° (E) 11:01:11 437.525
CUSAT 1 05 Sep 11:02:39 11:10:08 43° 266° (W) 11:16:29 437.405
TIGRISAT 05 Sep 11:09:59 11:13:04 17° 260° (W) 11:15:56 435.000
NANOSAT C BR1 05 Sep 11:11:10 11:15:17 50° 259° (WSW) 11:19:23 145.865
QB50P2 05 Sep 11:14:10 11:18:12 42° 259° (W) 11:22:13 145.880/145.840
JUGNU 05 Sep 11:16:50 11:17:49 10° 355° (N) 11:18:46 437.505
CUBEBUG 1 05 Sep 11:18:38 11:23:03 65° 281° (W) 11:27:27 437.445
BEESAT 3 05 Sep 11:26:48 11:30:42 54° 112° (ESE) 11:34:38 437.485
QB50P1 05 Sep 11:27:23 11:31:05 29° 259° (W) 11:34:42 145.935-145.965
AISAT 05 Sep 11:34:16 11:37:43 21° 281° (W) 11:41:01 437.250
ESTCUBE 1 05 Sep 11:38:35 11:42:27 27° 281° (W) 11:46:16 437.505/2401.250
TISAT 1 05 Sep 11:40:39 11:44:03 24° 101° (E) 11:47:32 437.305
AUBIESAT-1 05 Sep 11:43:08 11:44:20 11° 257° (WSW) 11:45:10 437.475
BEESAT 2 05 Sep 11:46:07 11:50:07 71° 112° (ESE) 11:54:10 435.950
PHONESAT 2.4 05 Sep 11:48:00 11:51:18 53° 223° (SW) 11:54:39 2401.200-2431.200
DANDE 05 Sep 12:07:47 12:13:26 19° 265° (W) 12:18:08 436.750
BUGSAT 1 05 Sep 12:16:08 12:17:31 11° 260° (W) 12:18:35 437.445
Oscar 19 05 Sep 12:18:23 12:22:03 21° 79° (E) 12:25:56 437.125/150
SPROUT 05 Sep 12:31:38 12:35:19 27° 281° (W) 12:38:55 437.525
SRMSAT 05 Sep 12:34:27 12:36:24 11° 352° (N) 12:38:17 437.500
ITUPSAT 1 05 Sep 12:40:58 12:43:56 17° 101° (E) 12:47:08 437.325
RS-15 05 Sep 12:44:41 12:54:46 44° 113° (ESE) 13:04:58 29.354- 29.394
AIST 2 05 Sep 12:55:53 13:00:04 78° 112° (ESE) 13:04:17 435.215
JUGNU 05 Sep 13:06:40 13:08:00 11° 6° (N) 13:09:24 437.505
BEESAT 05 Sep 13:09:29 13:13:58 43° 102° (ESE) 13:18:30 436.000
GONETS M04 05 Sep 13:16:53 13:25:38 69° 86° (E) 13:34:27
TISAT 1 05 Sep 13:17:35 13:19:41 13° 280° (W) 13:21:31 437.305
ITAMSAT 1 05 Sep 13:27:45 13:31:50 24° 79° (E) 13:36:03 435.822/435.867
SWISSCUBE 05 Sep 13:35:54 13:40:39 74° 283° (WNW) 13:45:26 437.505
Gurwin Techsat 1B 05 Sep 13:37:44 13:42:45 44° 79° (ENE) 13:47:47 435.225
Oscar 19 05 Sep 13:57:09 14:01:18 24° 259° (W) 14:05:18 437.125/150
AO-7 05 Sep 14:05:46 14:08:35 13° 76° (ENE) 14:12:18 29.400- 29.500
JAS-2 05 Sep 14:06:07 14:12:51 45° 77° (ENE) 14:20:11 435.910
STARS 05 Sep 14:08:52 14:10:14 12° 100° (E) 14:11:57 437.465
ITUPSAT 1 05 Sep 14:17:48 14:21:42 24° 281° (W) 14:25:29 437.325
Cosmos 2499 05 Sep 14:35:17 14:42:55 54° 85° (E) 14:50:04 435.465 / 435.565
KKS-1 05 Sep 14:37:13 14:41:37 64° 102° (ESE) 14:46:04 437.445
JUGNU 05 Sep 14:53:48 14:57:54 19° 15° (NNE) 15:02:04 437.505
RS-15 05 Sep 14:57:43 15:07:00 31° 294° (WNW) 15:15:53 29.354- 29.394
ITAMSAT 1 05 Sep 15:07:21 15:11:13 20° 259° (WSW) 15:14:52 435.822/435.867
GONETS M04 05 Sep 15:18:27 15:22:35 13° 263° (W) 15:25:45
Gurwin Techsat 1B 05 Sep 15:20:46 15:22:39 11° 259° (W) 15:24:04 435.225
O/OREOS (USA 219) 05 Sep 15:23:49 15:24:28 10° 107° (ESE) 15:25:28 437.305
MOZHAYETS 4 05 Sep 15:26:23 15:30:01 25° 101° (E) 15:33:48
STARS 05 Sep 15:42:43 15:46:35 29° 281° (W) 15:50:22 437.465
JAS-2 05 Sep 15:52:25 15:57:51 22° 261° (W) 16:03:13 435.910
AO-7 05 Sep 15:53:00 16:01:22 75° 255° (WSW) 16:09:41 29.400- 29.500
HORYU 2 05 Sep 16:02:18 16:06:36 44° 258° (WSW) 16:10:51 437.375
SRMSAT 05 Sep 16:13:29 16:16:53 16° 12° (NNE) 16:20:23 437.500
ISS 05 Sep 16:21:22 16:24:07 25° 234° (SW) 16:26:50 145.825
Cosmos 2499 05 Sep 16:31:39 16:35:53 15° 265° (W) 16:39:19 435.465 / 435.565
JUGNU 05 Sep 16:41:40 16:47:17 46° 20° (NNE) 16:52:54 437.505
O/OREOS (USA 219) 05 Sep 16:59:47 17:03:49 31° 285° (WNW) 17:07:47 437.305
MOZHAYETS 4 05 Sep 17:04:26 17:07:08 15° 280° (W) 17:09:36
Cubesat XI-IV 05 Sep 17:24:23 17:29:05 32° 78° (ENE) 17:33:49 437.490
CUBESAT XI-V 05 Sep 17:33:24 17:38:00 59° 101° (ESE) 17:42:40 437.345
STRAND 1 05 Sep 17:50:22 17:53:35 18° 101° (E) 17:57:04 437.568
SRMSAT 05 Sep 18:01:14 18:06:34 35° 19° (NNE) 18:11:57 437.500
AIST 1 05 Sep 18:05:22 18:09:19 35° 85° (E) 18:13:23
CUTE-I 05 Sep 18:07:05 18:12:26 77° 257° (WSW) 18:17:44 437.470
JUGNU 05 Sep 18:30:32 18:36:20 63° 201° (SSW) 18:42:09 437.505
BRITE-PL 05 Sep 18:40:35 18:44:00 25° 79° (E) 18:47:37 437.365/2234.400
GOMX 1 05 Sep 18:44:15 18:46:15 13° 79° (E) 18:48:36 467.674
PRISM 05 Sep 18:57:51 19:02:00 89° 101° (E) 19:06:11 437.425
Cubesat XI-IV 05 Sep 19:05:42 19:09:04 16° 259° (W) 19:12:07 437.490
YUBILEINY 05 Sep 19:06:29 19:14:31 43° 94° (E) 19:22:42 435.215
HO-68 05 Sep 19:20:52 19:26:35 27° 77° (ENE) 19:32:31 435.675
Cosmos 2491 05 Sep 19:27:58 19:36:41 70° 86° (E) 19:45:29 435.465 / 435.565
STRAND 1 05 Sep 19:28:18 19:32:40 28° 281° (WNW) 19:36:57 437.568
SRMSAT 05 Sep 19:49:55 19:55:51 85° 202° (SSW) 20:01:49 437.500
DOVE 4 05 Sep 20:07:33 20:11:53 75° 259° (W) 20:16:28 437.250
CINEMA 3 05 Sep 20:14:28 20:18:44 44° 79° (ENE) 20:23:13 145.822/145.860
GOMX 1 05 Sep 20:20:47 20:24:17 24° 261° (W) 20:27:47 467.674
JUGNU 05 Sep 20:20:52 20:25:34 24° 197° (SSW) 20:30:14 437.505
BRITE-PL 05 Sep 20:20:58 20:22:31 11° 261° (W) 20:23:45 437.365/2234.400
CUTE 1.7 + AOD 2 05 Sep 20:22:53 20:27:10 68° 259° (W) 20:31:25 437.475
CANX-2 05 Sep 20:38:04 20:42:01 35° 259° (W) 20:45:55 2200.000
SO-50 05 Sep 20:43:17 20:45:07 13° 114° (ESE) 20:47:16 436.795
ZACube-1 05 Sep 20:44:03 20:47:11 20° 79° (E) 20:50:31 437.345
FUNcube-1 05 Sep 20:46:51 20:50:05 20° 79° (E) 20:53:31 145.935
SEEDS 05 Sep 20:49:56 20:53:53 36° 259° (W) 20:57:47 437.485
DELFI C3 05 Sep 20:55:02 20:58:23 26° 80° (E) 21:01:49 145.870
VERMONT LUNAR 05 Sep 20:59:36 21:02:41 86° 316° (NW) 21:05:43 437.305
UWE-3 05 Sep 21:01:45 21:06:07 50° 78° (ENE) 21:10:35 435.000/436.395/437.385
Cosmos 2504 05 Sep 21:02:52 21:09:01 28° 94° (E) 21:15:48 435.465 / 435.565
COMPASS 1 05 Sep 21:03:02 21:06:51 32° 259° (W) 21:10:35 437.405
YUBILEINY 05 Sep 21:04:24 21:11:14 24° 276° (W) 21:17:38 435.215
CUBEBUG 2 05 Sep 21:05:51 21:10:22 82° 79° (E) 21:15:01 437.445
HO-68 05 Sep 21:07:53 21:14:11 33° 257° (WSW) 21:20:19 435.675
AAUSAT CUBESAT 2 05 Sep 21:08:27 21:12:17 33° 259° (W) 21:16:02 437.432
UNISAT 6 05 Sep 21:21:10 21:23:30 15° 100° (E) 21:26:03 437.425
Oscar 11 05 Sep 21:24:15 21:28:34 61° 259° (WSW) 21:32:50 145.826/435.025
Cosmos 2491 05 Sep 21:29:40 21:33:40 13° 263° (W) 21:36:41 435.465 / 435.565
SRMSAT 05 Sep 21:39:55 21:45:10 32° 198° (SSW) 21:50:24 437.500
TIGRISAT 05 Sep 21:46:03 21:49:55 32° 101° (E) 21:53:46 435.000
PCSat 05 Sep 21:51:49 21:55:19 18° 112° (ESE) 21:59:04 145.827
QB50P1 05 Sep 21:59:53 22:01:50 13° 100° (E) 22:04:05 145.935-145.965
CUSAT 1 05 Sep 22:04:13 22:06:56 31° 93° (E) 22:10:15 437.405
ANTELSAT 05 Sep 22:05:01 22:09:20 67° 102° (ESE) 22:13:35 437.575/2403.000
AUBIESAT-1 05 Sep 22:07:52 22:10:47 29° 104° (ESE) 22:13:44 437.475
AISAT 05 Sep 22:09:58 22:13:29 24° 79° (E) 22:17:05 437.250
JUGNU 05 Sep 22:13:01 22:15:18 12° 189° (S) 22:17:31 437.505
ESTCUBE 1 05 Sep 22:16:54 22:20:10 21° 80° (E) 22:23:34 437.505/2401.250
M-CUBED/EXP-1 PRIME 05 Sep 22:18:14 22:21:32 63° 104° (ESE) 22:24:47 437.505
HUMSAT D 05 Sep 22:19:29 22:23:43 59° 259° (WSW) 22:27:57 437.325/437.525
ZACube-1 05 Sep 22:20:11 22:23:24 19° 260° (W) 22:26:29 437.345
SO-50 05 Sep 22:21:28 22:25:31 31° 293° (WNW) 22:29:37 436.795
FUNcube-1 05 Sep 22:23:09 22:26:16 18° 260° (W) 22:29:13 145.935
50 SAT 05 Sep 22:29:28 22:33:23 60° 79° (E) 22:37:17 437.505
DELFI C3 05 Sep 22:32:10 22:33:20 11° 260° (W) 22:34:10 145.870
VELOX 1 05 Sep 22:35:48 22:40:06 55° 78° (ENE) 22:44:24 145.980
BUGSAT 1 05 Sep 22:42:03 22:45:41 29° 101° (E) 22:49:23 437.445
Cosmos 2504 05 Sep 22:54:11 23:01:04 34° 276° (W) 23:08:09 435.465 / 435.565
UNISAT 6 05 Sep 22:56:47 23:00:11 22° 281° (W) 23:03:25 437.425
DUCHIFAT 1 05 Sep 22:57:44 23:01:58 85° 282° (WNW) 23:06:12 145.980
DX 1 05 Sep 23:01:48 23:05:42 32° 259° (W) 23:09:32 434.975-435.025
POLYITAN 1 05 Sep 23:01:54 23:06:07 67° 282° (WNW) 23:10:20 437.675
POPSAT HIP 1 05 Sep 23:02:16 23:06:30 69° 281° (WNW) 23:10:44 437.405
SPROUT 05 Sep 23:05:01 23:07:29 16° 80° (E) 23:10:09 437.525
UKube-1 05 Sep 23:05:45 23:09:39 32° 259° (WSW) 23:13:28 .
DANDE 05 Sep 23:12:21 23:14:46 26° 279° (W) 23:17:32 436.750
NANOSAT C BR1 05 Sep 23:17:31 23:21:32 40° 281° (W) 23:25:30 145.865
BEESAT 3 05 Sep 23:20:52 23:24:44 58° 68° (ENE) 23:28:33 437.485
QB50P2 05 Sep 23:21:02 23:24:55 34° 281° (W) 23:28:45 145.880/145.840
PHONESAT 2.4 05 Sep 23:24:59 23:28:26 72° 316° (NW) 23:31:52 2401.200-2431.200
CUBEBUG 1 05 Sep 23:29:18 23:33:27 45° 259° (WSW) 23:37:33 437.445
SRMSAT 05 Sep 23:31:37 23:34:56 15° 191° (SSW) 23:38:10 437.500
PCSat 05 Sep 23:33:57 23:38:38 29° 291° (WNW) 23:43:13 145.827
QB50P1 05 Sep 23:34:07 23:37:35 23° 281° (W) 23:40:56 145.935-145.965
BEESAT 2 05 Sep 23:41:04 23:45:00 79° 68° (ENE) 23:48:55 435.950
TISAT 1 05 Sep 23:46:15 23:49:51 29° 79° (E) 23:53:31 437.305
AISAT 05 Sep 23:47:31 23:49:56 14° 260° (W) 23:52:05 437.250
ESTCUBE 1 05 Sep 23:53:49 23:56:55 17° 260° (W) 23:59:46 437.505/2401.250
GONETS M04 05 Sep 23:58:46 00:02:29 14° 97° (E) 00:07:03
BUGSAT 1 06 Sep 00:19:49 00:21:02 11° 280° (W) 00:21:54 437.445
SWISSCUBE 06 Sep 00:24:07 00:25:08 11° 80° (E) 00:26:33 437.505
RS-15 06 Sep 00:25:44 00:36:35 40° 67° (ENE) 00:47:48 29.354- 29.394
SPROUT 06 Sep 00:40:09 00:43:26 21° 260° (W) 00:46:33 437.525
Oscar 19 06 Sep 00:50:51 00:55:51 53° 102° (ESE) 01:00:53 437.125/150
AIST 2 06 Sep 00:54:46 00:58:49 83° 250° (WSW) 01:02:52 435.215
ITUPSAT 1 06 Sep 01:02:16 01:06:32 33° 79° (E) 01:10:50 437.325
TISAT 1 06 Sep 01:24:40 01:25:30 10° 260° (W) 01:25:59 437.305
BEESAT 06 Sep 01:31:19 01:36:08 86° 74° (ENE) 01:40:54 436.000
JAS-2 06 Sep 01:43:06 01:46:33 17° 99° (E) 01:50:09 435.910
GONETS M04 06 Sep 01:50:47 01:59:23 64° 274° (W) 02:07:54
JUGNU 06 Sep 01:52:26 01:55:30 14° 169° (SSE) 01:58:39 437.505
SWISSCUBE 06 Sep 01:58:29 02:02:55 37° 259° (WSW) 02:07:15 437.505
ITAMSAT 1 06 Sep 02:01:40 02:06:48 66° 102° (ESE) 02:12:01 435.822/435.867
Gurwin Techsat 1B 06 Sep 02:15:58 02:21:12 64° 282° (WNW) 02:26:29 435.225
STARS 06 Sep 02:18:46 02:21:28 17° 80° (E) 02:24:24 437.465
AO-7 06 Sep 02:29:07 02:35:00 23° 104° (ESE) 02:41:22 29.400- 29.500
RS-15 06 Sep 02:37:46 02:49:02 40° 247° (WSW) 02:59:55 29.354- 29.394
HORYU 2 06 Sep 02:41:19 02:42:46 12° 100° (E) 02:44:33 437.375
ITUPSAT 1 06 Sep 02:42:10 02:44:19 12° 259° (W) 02:46:06 437.325
Cosmos 2499 06 Sep 02:43:17 02:51:13 70° 93° (E) 02:59:46 435.465 / 435.565
KKS-1 06 Sep 02:49:51 02:54:17 83° 256° (WSW) 02:58:44 437.445
SRMSAT 06 Sep 03:13:04 03:15:30 12° 171° (S) 03:18:01 437.500
JAS-2 06 Sep 03:26:44 03:31:41 29° 283° (WNW) 03:36:11 435.910
O/OREOS (USA 219) 06 Sep 03:32:30 03:35:35 19° 74° (ENE) 03:38:51 437.305
JUGNU 06 Sep 03:39:57 03:45:06 31° 162° (SSE) 03:50:21 437.505
MOZHAYETS 4 06 Sep 03:42:39 03:47:01 42° 79° (E) 03:51:24
ISS 06 Sep 03:54:24 03:57:31 42° 306° (NW) 04:00:36 145.825
STARS 06 Sep 03:54:26 03:57:47 21° 259° (W) 04:01:00 437.465
HORYU 2 06 Sep 04:15:27 04:19:18 29° 281° (WNW) 04:23:05 437.375
AO-7 06 Sep 04:19:51 04:27:41 47° 285° (WNW) 04:35:28 29.400- 29.500
Cosmos 2499 06 Sep 04:41:07 04:44:40 12° 278° (W) 04:47:22 435.465 / 435.565
SRMSAT 06 Sep 05:00:39 05:05:27 25° 163° (SSE) 05:10:18 437.500
CUTE-I 06 Sep 05:08:04 05:11:49 20° 101° (ESE) 05:15:49 437.470
O/OREOS (USA 219) 06 Sep 05:11:38 05:14:54 19° 254° (WSW) 05:17:59 437.305
JUGNU 06 Sep 05:28:18 05:34:17 82° 159° (SSE) 05:40:19 437.505
CUBESAT XI-V 06 Sep 05:51:59 05:56:37 76° 259° (W) 06:01:11 437.345
Cubesat XI-IV 06 Sep 06:03:14 06:08:35 85° 284° (WNW) 06:13:59 437.490
Cosmos 2491 06 Sep 06:09:50 06:13:41 14° 97° (E) 06:18:25 435.465 / 435.565
AIST 1 06 Sep 06:12:06 06:16:14 49° 94° (E) 06:20:21
STRAND 1 06 Sep 06:21:36 06:26:26 44° 78° (ENE) 06:31:16 437.568
CUTE-I 06 Sep 06:47:20 06:51:46 26° 281° (WNW) 06:56:06 437.470
SRMSAT 06 Sep 06:48:57 06:54:54 62° 159° (SSE) 07:00:50 437.500
DOVE 4 06 Sep 06:54:30 06:55:43 11° 98° (E) 06:57:20 437.250
PRISM 06 Sep 07:01:29 07:05:37 80° 257° (WSW) 07:09:42 437.425
GOMX 1 06 Sep 07:05:53 07:10:41 35° 100° (E) 07:15:21 467.674
CANX-2 06 Sep 07:11:56 07:12:52 11° 100° (E) 07:14:08 2200.000
